La Baie, Quebec

10:40 AM ADT on April 23, 2017 (GMT -0300)
La Baie

Weather History for CWUX - October, 2012

Change the Weather History Date:

Wednesday, October 31, 2012

  Actual Average (CYBG) Record (CYBG)
Temperature  
Mean Temperature 54 °F -  
Max Temperature 56 °F 40 °F 59 °F (1999)
Min Temperature 51 °F 28 °F 19 °F (2002)
Degree Days  
Heating Degree Days 12    
Growing Degree Days 4 (Base 50)    
Moisture  
Dew Point 50 °F    
Average Humidity 91    
Maximum Humidity 95    
Minimum Humidity 85    
Precipitation  
Precipitation 0.00 in - - ()
Sea Level Pressure  
Sea Level Pressure 29.65 in    
Wind  
Wind Speed 9 mph ()    
Max Wind Speed 13 mph    
Max Gust Speed 22 mph    
Averages and records for this station are not official NWS values.
T = Trace of Precipitation, MM = Missing Value Source: Averaged Metar Reports

Daily Weather History Graph

Daily Weather History Graph

Search for Another Location

Airport or City:

Trip Planner

Search our weather history database for the weather conditions in past years. The results will help you decide how hot, cold, wet, or windy it might be!

Date:

Astronomy

Oct. 31, 2012 Rise Set
Actual Time 8:28 AM ADT 6:25 PM ADT
Civil Twilight 7:55 AM ADT 6:58 PM ADT
Nautical Twilight 7:18 AM ADT 7:34 PM ADT
Astronomical Twilight 6:42 AM ADT 8:11 PM ADT
Moon 7:25 PM ADT (10/31) 10:15 AM ADT (10/31)
Length of Visible Light 11h 02m
Length of Day
9h 56m
Full, 97% of the Moon is Illuminated
Oct 31
Full
Nov 6
Last Quarter
Nov 13
New
Nov 20
First Quarter
Nov 28
Full

Hourly Weather History & Observations

Time (ADT) Temp. Dew Point Humidity Pressure Visibility Wind Dir Wind Speed Gust Speed Precip Events Conditions
12:00 AM 51.6 °F 50.0 °F 94% 29.81 in - East 10.4 mph - N/A   Unknown
1:00 AM 51.8 °F 50.0 °F 94% 29.79 in - East 11.5 mph 17.3 mph N/A   Unknown
2:00 AM 51.8 °F 49.5 °F 92% 29.76 in - East 12.7 mph - N/A   Unknown
3:00 AM 52 °F 49 °F 88% 29.74 in - East 9.2 mph - -  
3:00 AM 51.8 °F 49.5 °F 92% 29.74 in - East 9.2 mph - N/A   Unknown
4:00 AM 52.2 °F 49.8 °F 92% 29.75 in - East 8.1 mph - N/A   Unknown
5:00 AM 52.0 °F 49.1 °F 90% 29.72 in - East 9.2 mph - N/A   Unknown
6:00 AM 51.6 °F 48.9 °F 90% 29.69 in - East 11.5 mph 21.9 mph N/A   Unknown
7:00 AM 51.6 °F 49.1 °F 91% 29.68 in - East 6.9 mph - N/A   Unknown
8:00 AM 51.6 °F 49.1 °F 91% 29.66 in - East 12.7 mph 19.6 mph N/A   Unknown
9:00 AM 52 °F 49 °F 86% 29.67 in - East 12.7 mph - -  
9:00 AM 51.6 °F 49.1 °F 91% 29.67 in - East 12.7 mph 21.9 mph N/A   Unknown
10:00 AM 52.2 °F 49.5 °F 91% 29.64 in - East 10.4 mph - N/A   Unknown
11:00 AM 52.9 °F 49.8 °F 89% 29.62 in - ESE 11.5 mph - N/A   Unknown
12:00 PM 54.7 °F 51.4 °F 89% 29.61 in - ESE 12.7 mph - N/A   Unknown
2:00 PM 54.1 °F 52.2 °F 93% 29.56 in - East 8.1 mph - N/A   Unknown
3:00 PM 56 °F 53 °F 85% 29.55 in - East 11.5 mph - -  
3:00 PM 55.6 °F 52.7 °F 90% 29.55 in - East 11.5 mph 21.9 mph N/A   Unknown
4:00 PM 54.7 °F 52.3 °F 92% 29.54 in - East 8.1 mph - N/A   Unknown
5:00 PM 53.2 °F 51.6 °F 94% 29.54 in - ESE 10.4 mph - N/A   Unknown
6:00 PM 52.7 °F 50.9 °F 94% 29.52 in - East 8.1 mph - N/A   Unknown
7:00 PM 51.4 °F 49.8 °F 94% 29.52 in - ENE 5.8 mph - N/A   Unknown
8:00 PM 51.3 °F 50.0 °F 95% 29.51 in - East 5.8 mph - N/A   Unknown